Weather History for Biloxi, MS

Change the Weather History Date:

Wednesday, November 23, 2011

  Actual Average Record
Temperature  
Mean Temperature 62 °F -  
Max Temperature 70 °F 68 °F 79 °F (1978)
Min Temperature 52 °F 50 °F 33 °F (1949)
Degree Days  
Heating Degree Days 3    
Growing Degree Days 12 (Base 50)    
Moisture  
Dew Point 59 °F    
Average Humidity 85    
Maximum Humidity 100    
Minimum Humidity 52    
Precipitation  
Precipitation 0.00 in - - ()
Sea Level Pressure  
Sea Level Pressure 30.13 in    
Wind  
Wind Speed 5 mph (NNE)    
Max Wind Speed 14 mph    
Max Gust Speed -    
Visibility 10 miles    
Events      
Averages and records for this station are not official NWS values.
T = Trace of Precipitation, MM = Missing Value Source: NWS Daily Summary

Daily Weather History Graph

Daily Weather History Graph

Search for Another Location

Airport:

Trip Planner

Search our weather history database for the weather conditions in past years. The results will help you decide how hot, cold, wet, or windy it might be!

Date:

Astronomy

Nov. 23, 2011 Rise Set
Actual Time 6:28 AM CST 4:55 PM CST
Civil Twilight 6:02 AM CST 5:21 PM CST
Nautical Twilight 5:32 AM CST 5:51 PM CST
Astronomical Twilight 5:04 AM CST 6:19 PM CST
Moon 4:35 AM CST (11/23) 3:35 PM CST (11/23)
Length of Visible Light 11h 19m
Length of Day
10h 27m
Waning Crescent, 3% of the Moon is Illuminated
Nov 23
Waning Crescent
Nov 25
New
Dec 2
First Quarter
Dec 10
Full
Dec 17
Last Quarter

Hourly Weather History & Observations

Time (CST) Temp. Dew Point Humidity Pressure Visibility Wind Dir Wind Speed Gust Speed Precip Events Conditions
12:34 AM 68.0 °F 68.0 °F 100% 30.05 in 10.0 mi Calm Calm - N/A   Overcast
12:41 AM 68.0 °F 68.0 °F 100% 30.05 in 10.0 mi Calm Calm - N/A   Overcast
12:50 AM 68.0 °F 68.0 °F 100% 30.05 in 10.0 mi North 5.8 mph - N/A   Overcast
12:55 AM 67.5 °F 67.5 °F 100% 30.05 in 10.0 mi North 5.8 mph - N/A   Overcast
1:24 AM 68.0 °F 68.0 °F 100% 30.06 in 10.0 mi Variable 3.5 mph - N/A   Overcast
1:55 AM 66.9 °F 66.9 °F 100% 30.06 in 10.0 mi Variable 4.6 mph - N/A   Overcast
2:55 AM 66.2 °F 66.2 °F 100% 30.06 in 10.0 mi Variable 3.5 mph - N/A   Mostly Cloudy
3:55 AM 65.1 °F 65.1 °F 100% 30.06 in 10.0 mi Variable 4.6 mph - N/A   Mostly Cloudy
4:03 AM 64.4 °F 64.4 °F 100% 30.06 in 10.0 mi Variable 4.6 mph - N/A   Mostly Cloudy
4:11 AM 64.4 °F 64.4 °F 100% 30.06 in 10.0 mi Variable 5.8 mph - N/A   Overcast
4:25 AM 64.4 °F 64.4 °F 100% 30.06 in 10.0 mi Variable 5.8 mph - N/A   Scattered Clouds
4:55 AM 63.9 °F 63.3 °F 98% 30.07 in 10.0 mi Variable 6.9 mph - N/A   Clear
5:35 AM 62.6 °F 62.6 °F 100% 30.09 in 10.0 mi Variable 4.6 mph - N/A   Mostly Cloudy
5:55 AM 63.3 °F 62.1 °F 96% 30.09 in 10.0 mi Variable 5.8 mph - N/A   Overcast
6:55 AM 62.2 °F 58.6 °F 88% 30.12 in 10.0 mi Variable 5.8 mph - N/A   Overcast
7:55 AM 61.2 °F 56.5 °F 85% 30.17 in 10.0 mi North 12.7 mph - N/A   Mostly Cloudy
8:55 AM 60.6 °F 55.8 °F 84% 30.18 in 10.0 mi North 10.4 mph - N/A   Mostly Cloudy
9:55 AM 63.3 °F 55.2 °F 75% 30.18 in 10.0 mi NNE 8.1 mph - N/A   Scattered Clouds
10:55 AM 65.1 °F 55.8 °F 72% 30.17 in 10.0 mi North 11.5 mph - N/A   Clear
11:55 AM 68.2 °F 52.2 °F 56% 30.14 in 10.0 mi ENE 13.8 mph - N/A   Clear
12:55 PM 69.3 °F 52.5 °F 55% 30.13 in 10.0 mi North 8.1 mph - N/A   Clear
1:55 PM 70.3 °F 52.0 °F 52% 30.12 in 10.0 mi NNE 11.5 mph - N/A   Clear
2:55 PM 70.3 °F 52.5 °F 53% 30.12 in 10.0 mi North 11.5 mph - N/A   Clear
3:55 PM 68.7 °F 52.0 °F 55% 30.13 in 10.0 mi NNE 8.1 mph - N/A   Clear
4:55 PM 65.8 °F 52.7 °F 62% 30.16 in 10.0 mi NNE 6.9 mph - N/A   Clear
5:55 PM 63.3 °F 53.8 °F 71% 30.19 in 10.0 mi North 5.8 mph - N/A   Clear
6:55 PM 60.6 °F 53.4 °F 77% 30.21 in 10.0 mi NNE 6.9 mph - N/A   Clear
7:55 PM 58.8 °F 53.2 °F 82% 30.23 in 10.0 mi NNE 8.1 mph - N/A   Clear
8:55 PM 57.4 °F 52.0 °F 82% 30.25 in 10.0 mi NNE 10.4 mph - N/A   Clear
9:55 PM 55.2 °F 50.9 °F 85% 30.25 in 10.0 mi NNE 9.2 mph - N/A   Clear
10:55 PM 54.0 °F 50.2 °F 87% 30.25 in 10.0 mi NNE 9.2 mph - N/A   Clear
11:55 PM 52.5 °F 49.8 °F 91% 30.24 in 10.0 mi NNE 9.2 mph - N/A   Clear